Redmond, OR

12:56 AM PST on February 14, 2016 (GMT -0800)
Roberts Field Airport

Weather History for KRDM - August, 2014

Change the Weather History Date:

Friday, August 22, 2014

  Actual Average Record
Temperature  
Mean Temperature 59 °F 64 °F  
Max Temperature 76 °F 84 °F 98 °F (1961)
Min Temperature 41 °F 44 °F 31 °F (1960)
Degree Days  
Heating Degree Days 6 3  
Month to date heating degree days 15 47  
Since 1 June heating degree days 269 333  
Since 1 July heating degree days 46 116  
Cooling Degree Days 0 2  
Month to date cooling degree days 96 67  
Year to date cooling degree days 290 193  
Since 1 June cooling degree days 290 188  
Growing Degree Days 9 (Base 50)    
Moisture  
Dew Point 39 °F    
Average Humidity 53    
Maximum Humidity 82    
Minimum Humidity 23    
Precipitation  
Precipitation 0.00 in 0.01 in 0.39 in (1948)
Month to date precipitation 0.90 0.35  
Year to date precipitation 4.94 5.58  
Sea Level Pressure  
Sea Level Pressure 29.99 in    
Wind  
Wind Speed 7 mph (North)    
Max Wind Speed 18 mph    
Max Gust Speed 24 mph    
Visibility 10 miles    
Events      
T = Trace of Precipitation, MM = Missing Value Source: NWS Daily Summary

Daily Weather History Graph

Daily Weather History Graph

Search for Another Location

Airport or City:

Trip Planner

Search our weather history database for the weather conditions in past years. The results will help you decide how hot, cold, wet, or windy it might be!

Date:

Astronomy

Aug. 22, 2014 Rise Set
Actual Time 6:16 AM PDT 7:57 PM PDT
Civil Twilight 5:45 AM PDT 8:28 PM PDT
Nautical Twilight 5:07 AM PDT 9:05 PM PDT
Astronomical Twilight 4:27 AM PDT 9:45 PM PDT
Moon 3:40 AM PDT (8/22) 6:11 PM PDT (8/22)
Length of Visible Light 14h 43m
Length of Day
13h 41m
Waning Crescent, 7% of the Moon is Illuminated
Aug 22
Waning Crescent
Aug 25
New
Sep 2
First Quarter
Sep 8
Full
Sep 15
Last Quarter

Hourly Weather History & Observations

Time (PDT) Temp. Windchill Dew Point Humidity Pressure Visibility Wind Dir Wind Speed Gust Speed Precip Events Conditions
12:56 AM 50.0 °F - 39.9 °F 68% 29.96 in 10.0 mi East 3.5 mph - N/A   Clear
1:56 AM 46.0 °F - 37.9 °F 73% 29.96 in 10.0 mi Calm Calm - N/A   Clear
2:56 AM 48.0 °F - 39.0 °F 71% 29.96 in 10.0 mi Calm Calm - N/A   Clear
3:56 AM 46.9 °F - 39.0 °F 74% 29.96 in 10.0 mi South 3.5 mph - N/A   Clear
4:56 AM 46.0 °F - 37.9 °F 73% 29.96 in 10.0 mi Calm Calm - N/A   Clear
5:56 AM 43.0 °F 40.3 °F 37.0 °F 80% 29.97 in 10.0 mi South 4.6 mph - N/A   Clear
6:56 AM 43.0 °F 40.3 °F 37.0 °F 80% 29.99 in 10.0 mi South 4.6 mph - N/A   Scattered Clouds
7:56 AM 51.1 °F - 37.9 °F 61% 29.99 in 10.0 mi South 4.6 mph - N/A   Clear
8:56 AM 60.1 °F - 39.0 °F 46% 29.98 in 10.0 mi Calm Calm - N/A   Clear
9:56 AM 63.0 °F - 39.9 °F 43% 29.99 in 10.0 mi Variable 4.6 mph - N/A   Clear
10:56 AM 66.0 °F - 41.0 °F 40% 29.99 in 10.0 mi NNW 10.4 mph 18.4 mph N/A   Clear
11:56 AM 69.1 °F - 41.0 °F 36% 29.99 in 10.0 mi Variable 5.8 mph 17.3 mph N/A   Clear
12:56 PM 71.1 °F - 39.9 °F 32% 29.99 in 10.0 mi NNW 11.5 mph - N/A   Clear
1:56 PM 72.0 °F - 39.0 °F 30% 29.98 in 10.0 mi North 9.2 mph 16.1 mph N/A   Partly Cloudy
2:56 PM 73.9 °F - 37.0 °F 26% 29.96 in 10.0 mi NNW 13.8 mph 18.4 mph N/A   Scattered Clouds
3:56 PM 75.0 °F - 37.0 °F 25% 29.96 in 10.0 mi NNE 12.7 mph 24.2 mph N/A   Clear
4:56 PM 75.0 °F - 35.1 °F 23% 29.96 in 10.0 mi NW 11.5 mph 19.6 mph N/A   Clear
5:56 PM 73.9 °F - 37.0 °F 26% 29.97 in 10.0 mi North 13.8 mph - N/A   Partly Cloudy
6:56 PM 71.1 °F - 36.0 °F 28% 29.99 in 10.0 mi North 13.8 mph - N/A   Clear
7:56 PM 66.9 °F - 39.0 °F 36% 30.01 in 10.0 mi NNW 8.1 mph - N/A   Clear
8:56 PM 64.9 °F - 42.1 °F 43% 30.03 in 10.0 mi NNW 10.4 mph - N/A   Mostly Cloudy
10:56 PM 60.1 °F - 43.0 °F 53% 30.06 in 10.0 mi NNE 5.8 mph - N/A   Mostly Cloudy
11:56 PM 60.1 °F - 44.1 °F 55% 30.07 in 10.0 mi North 6.9 mph - N/A   Mostly Cloudy